Location: Clanezzo
(45.7500°N, 9.6000°E)
Time: 22:17:35
(UTC+00:00)

EO-79 - Pass Details

Date: 30 June 2022
Orbit: 588 x 603 km, 98.0° (Epoch: 07 August)

Event Time Altitude Azimuth Distance (km) Brightness Sun altitude
Rises 02:24:02 0° 357° (N) 2,852 ? -10.0°
Reaches altitude 10° 02:26:49 10° 338° (NNW) 1,948 ? -9.7°
Maximum altitude 02:29:32 17° 298° (WNW) 1,538 ? -9.4°
Drops below altitude 10° 02:32:16 10° 257° (WSW) 1,944 ? -9.1°
Enters shadow 02:32:45 - 252° (WSW) 2,078 ? -9.0°
